Year,Month,Day,Hour,Minute,Value (Times are PST for temperature in C)
2010,07,18,00,00,13.20
2010,07,18,00,01,13.20
2010,07,18,00,02,13.20
2010,07,18,00,03,13.10
2010,07,18,00,04,13.10
2010,07,18,00,05,13.10
2010,07,18,00,06,13.10
2010,07,18,00,07,13.10
2010,07,18,00,08,13.10
2010,07,18,00,09,13.10
2010,07,18,00,10,13.00
2010,07,18,00,11,13.00
2010,07,18,00,12,13.00
2010,07,18,00,13,13.00
2010,07,18,00,14,12.90
2010,07,18,00,15,12.90
2010,07,18,00,16,12.90
2010,07,18,00,17,12.80
2010,07,18,00,18,12.80
2010,07,18,00,19,12.80
2010,07,18,00,20,12.80
2010,07,18,00,21,12.80
2010,07,18,00,22,12.80
2010,07,18,00,23,12.80
2010,07,18,00,24,12.80
2010,07,18,00,25,12.80
2010,07,18,00,26,12.80
2010,07,18,00,27,12.80
2010,07,18,00,28,12.70
2010,07,18,00,29,12.70
2010,07,18,00,30,12.70
2010,07,18,00,31,12.70
2010,07,18,00,32,12.60
2010,07,18,00,33,12.60
2010,07,18,00,34,12.60
2010,07,18,00,35,12.50
2010,07,18,00,36,12.50
2010,07,18,00,37,12.50
2010,07,18,00,38,12.50
2010,07,18,00,39,12.50
2010,07,18,00,40,12.40
2010,07,18,00,41,12.40
2010,07,18,00,42,12.40
2010,07,18,00,43,12.40
2010,07,18,00,44,12.40
2010,07,18,00,45,12.40
2010,07,18,00,46,12.40
2010,07,18,00,47,12.40
2010,07,18,00,48,12.40
2010,07,18,00,49,12.40
2010,07,18,00,50,12.30
2010,07,18,00,51,12.30
2010,07,18,00,52,12.30
2010,07,18,00,53,12.30
2010,07,18,00,54,12.30
2010,07,18,00,55,12.30
2010,07,18,00,56,12.30
2010,07,18,00,57,12.30
2010,07,18,00,58,12.30
2010,07,18,00,59,12.30
2010,07,18,01,00,12.30
2010,07,18,01,01,12.30
2010,07,18,01,02,12.30
2010,07,18,01,03,12.30
2010,07,18,01,04,12.30
2010,07,18,01,05,12.20
2010,07,18,01,06,12.20
2010,07,18,01,07,12.20
2010,07,18,01,08,12.10
2010,07,18,01,09,12.10
2010,07,18,01,10,12.10
2010,07,18,01,11,12.10
2010,07,18,01,12,12.10
2010,07,18,01,13,12.00
2010,07,18,01,14,12.00
2010,07,18,01,15,12.00
2010,07,18,01,16,12.00
2010,07,18,01,17,12.00
2010,07,18,01,18,12.00
2010,07,18,01,19,12.00
2010,07,18,01,20,12.00
2010,07,18,01,21,12.00
2010,07,18,01,22,11.90
2010,07,18,01,23,11.90
2010,07,18,01,24,11.90
2010,07,18,01,25,11.90
2010,07,18,01,26,11.90
2010,07,18,01,27,11.90
2010,07,18,01,28,11.90
2010,07,18,01,29,11.90
2010,07,18,01,30,11.90
2010,07,18,01,31,11.90
2010,07,18,01,32,11.90
2010,07,18,01,33,11.90
2010,07,18,01,34,11.90
2010,07,18,01,35,11.90
2010,07,18,01,36,11.90
2010,07,18,01,37,11.90
2010,07,18,01,38,11.80
2010,07,18,01,39,11.80
2010,07,18,01,40,11.80
2010,07,18,01,41,11.80
2010,07,18,01,42,11.80
2010,07,18,01,43,11.80
2010,07,18,01,44,11.80
2010,07,18,01,45,11.80
2010,07,18,01,46,11.80
2010,07,18,01,47,11.70
2010,07,18,01,48,11.70
2010,07,18,01,49,11.70
2010,07,18,01,50,11.70
2010,07,18,01,51,11.60
2010,07,18,01,52,11.60
2010,07,18,01,53,11.60
2010,07,18,01,54,11.60
2010,07,18,01,55,11.60
2010,07,18,01,56,11.60
2010,07,18,01,57,11.60
2010,07,18,01,58,11.60
2010,07,18,01,59,11.60
2010,07,18,02,00,11.60
2010,07,18,02,01,11.60
2010,07,18,02,02,11.60
2010,07,18,02,03,11.60
2010,07,18,02,04,11.60
2010,07,18,02,05,11.60
2010,07,18,02,06,11.60
2010,07,18,02,07,11.60
2010,07,18,02,08,11.60
2010,07,18,02,09,11.50
2010,07,18,02,10,11.40
2010,07,18,02,11,11.40
2010,07,18,02,12,11.40
2010,07,18,02,13,11.40
2010,07,18,02,14,11.40
2010,07,18,02,15,11.40
2010,07,18,02,16,11.40
2010,07,18,02,17,11.40
2010,07,18,02,18,11.40
2010,07,18,02,19,11.40
2010,07,18,02,20,11.40
2010,07,18,02,21,11.40
2010,07,18,02,22,11.40
2010,07,18,02,23,11.40
2010,07,18,02,24,11.40
2010,07,18,02,25,11.40
2010,07,18,02,26,11.40
2010,07,18,02,27,11.40
2010,07,18,02,28,11.40
2010,07,18,02,29,11.30
2010,07,18,02,30,11.30
2010,07,18,02,31,11.30
2010,07,18,02,32,11.30
2010,07,18,02,33,11.20
2010,07,18,02,34,11.20
2010,07,18,02,35,11.20
2010,07,18,02,36,11.20
2010,07,18,02,37,11.20
2010,07,18,02,38,11.20
2010,07,18,02,39,11.20
2010,07,18,02,40,11.20
2010,07,18,02,41,11.10
2010,07,18,02,42,11.10
2010,07,18,02,43,11.10
2010,07,18,02,44,11.10
2010,07,18,02,45,11.10
2010,07,18,02,46,11.10
2010,07,18,02,47,11.10
2010,07,18,02,48,11.10
2010,07,18,02,49,11.10
2010,07,18,02,50,11.10
2010,07,18,02,51,11.10
2010,07,18,02,52,11.10
2010,07,18,02,53,11.10
2010,07,18,02,54,11.10
2010,07,18,02,55,11.10
2010,07,18,02,56,11.10
2010,07,18,02,57,11.10
2010,07,18,02,58,11.10
2010,07,18,02,59,11.10
2010,07,18,03,00,11.00
2010,07,18,03,01,10.90
2010,07,18,03,02,10.90
2010,07,18,03,03,10.90
2010,07,18,03,04,10.90
2010,07,18,03,05,10.90
2010,07,18,03,06,10.90
2010,07,18,03,07,10.90
2010,07,18,03,08,10.90
2010,07,18,03,09,10.90
2010,07,18,03,10,10.90
2010,07,18,03,11,10.90
2010,07,18,03,12,10.80
2010,07,18,03,13,10.80
2010,07,18,03,14,10.80
2010,07,18,03,15,10.70
2010,07,18,03,16,10.70
2010,07,18,03,17,10.70
2010,07,18,03,18,10.70
2010,07,18,03,19,10.60
2010,07,18,03,20,10.60
2010,07,18,03,21,10.60
2010,07,18,03,22,10.60
2010,07,18,03,23,10.60
2010,07,18,03,24,10.60
2010,07,18,03,25,10.50
2010,07,18,03,26,10.40
2010,07,18,03,27,10.40
2010,07,18,03,28,10.40
2010,07,18,03,29,10.40
2010,07,18,03,30,10.40
2010,07,18,03,31,10.40
2010,07,18,03,32,10.40
2010,07,18,03,33,10.40
2010,07,18,03,34,10.40
2010,07,18,03,35,10.40
2010,07,18,03,36,10.40
2010,07,18,03,37,10.40
2010,07,18,03,38,10.40
2010,07,18,03,39,10.40
2010,07,18,03,40,10.40
2010,07,18,03,41,10.40
2010,07,18,03,42,10.40
2010,07,18,03,43,10.40
2010,07,18,03,44,10.40
2010,07,18,03,45,10.40
2010,07,18,03,46,10.40
2010,07,18,03,47,10.40
2010,07,18,03,48,10.40
2010,07,18,03,49,10.40
2010,07,18,03,50,10.40
2010,07,18,03,51,10.40
2010,07,18,03,52,10.40
2010,07,18,03,53,10.40
2010,07,18,03,54,10.40
2010,07,18,03,55,10.40
2010,07,18,03,56,10.40
2010,07,18,03,57,10.40
2010,07,18,03,58,10.40
2010,07,18,03,59,10.30
2010,07,18,04,00,10.30
2010,07,18,04,01,10.30
2010,07,18,04,02,10.30
2010,07,18,04,03,10.30
2010,07,18,04,04,10.20
2010,07,18,04,05,10.20
2010,07,18,04,06,10.20
2010,07,18,04,07,10.20
2010,07,18,04,08,10.20
2010,07,18,04,09,10.20
2010,07,18,04,10,10.20
2010,07,18,04,11,10.20
2010,07,18,04,12,10.20
2010,07,18,04,13,10.20
2010,07,18,04,14,10.20
2010,07,18,04,15,10.10
2010,07,18,04,16,10.10
2010,07,18,04,17,10.10
2010,07,18,04,18,10.10
2010,07,18,04,19,10.10
2010,07,18,04,20,10.10
2010,07,18,04,21,10.10
2010,07,18,04,22,10.10
2010,07,18,04,23,10.10
2010,07,18,04,24,10.10
2010,07,18,04,25,10.10
2010,07,18,04,26,10.00
2010,07,18,04,27,9.90
2010,07,18,04,28,9.90
2010,07,18,04,29,9.90
2010,07,18,04,30,9.90
2010,07,18,04,31,9.90
2010,07,18,04,32,9.90
2010,07,18,04,33,9.90
2010,07,18,04,34,9.90
2010,07,18,04,35,9.90
2010,07,18,04,36,9.90
2010,07,18,04,37,9.90
2010,07,18,04,38,9.90
2010,07,18,04,39,9.90
2010,07,18,04,40,9.90
2010,07,18,04,41,9.90
2010,07,18,04,42,9.90
2010,07,18,04,43,9.90
2010,07,18,04,44,9.90
2010,07,18,04,45,9.90
2010,07,18,04,46,9.90
2010,07,18,04,47,9.90
2010,07,18,04,48,9.80
2010,07,18,04,49,9.80
2010,07,18,04,50,9.80
2010,07,18,04,51,9.80
2010,07,18,04,52,9.80
2010,07,18,04,53,9.80
2010,07,18,04,54,9.80
2010,07,18,04,55,9.80
2010,07,18,04,56,9.80
2010,07,18,04,57,9.70
2010,07,18,04,58,9.70
2010,07,18,04,59,9.70
2010,07,18,05,00,9.70
2010,07,18,05,01,9.70
2010,07,18,05,02,9.70
2010,07,18,05,03,9.70
2010,07,18,05,04,9.70
2010,07,18,05,05,9.70
2010,07,18,05,06,9.70
2010,07,18,05,07,9.70
2010,07,18,05,08,9.70
2010,07,18,05,09,9.70
2010,07,18,05,10,9.70
2010,07,18,05,11,9.70
2010,07,18,05,12,9.70
2010,07,18,05,13,9.70
2010,07,18,05,14,9.70
2010,07,18,05,15,9.70
2010,07,18,05,16,9.70
2010,07,18,05,17,9.70
2010,07,18,05,18,9.70
2010,07,18,05,19,9.70
2010,07,18,05,20,9.70
2010,07,18,05,21,9.60
2010,07,18,05,22,9.60
2010,07,18,05,23,9.60
2010,07,18,05,24,9.60
2010,07,18,05,25,9.60
2010,07,18,05,26,9.60
2010,07,18,05,27,9.60
2010,07,18,05,28,9.60
2010,07,18,05,29,9.60
2010,07,18,05,30,9.60
2010,07,18,05,31,9.60
2010,07,18,05,32,9.60
2010,07,18,05,33,9.50
2010,07,18,05,34,9.50
2010,07,18,05,35,9.50
2010,07,18,05,36,9.50
2010,07,18,05,37,9.50
2010,07,18,05,38,9.50
2010,07,18,05,39,9.50
2010,07,18,05,40,9.50
2010,07,18,05,41,9.50
2010,07,18,05,42,9.60
2010,07,18,05,43,9.60
2010,07,18,05,44,9.60
2010,07,18,05,45,9.60
2010,07,18,05,46,9.60
2010,07,18,05,47,9.60
2010,07,18,05,48,9.50
2010,07,18,05,49,9.50
2010,07,18,05,50,9.50
2010,07,18,05,51,9.50
2010,07,18,05,52,9.50
2010,07,18,05,53,9.50
2010,07,18,05,54,9.40
2010,07,18,05,55,9.40
2010,07,18,05,56,9.40
2010,07,18,05,57,9.40
2010,07,18,05,58,9.40
2010,07,18,05,59,9.40
2010,07,18,06,00,9.40
2010,07,18,06,01,9.40
2010,07,18,06,02,9.40
2010,07,18,06,03,9.40
2010,07,18,06,04,9.40
2010,07,18,06,05,9.40
2010,07,18,06,06,9.40
2010,07,18,06,07,9.40
2010,07,18,06,08,9.50
2010,07,18,06,09,9.50
2010,07,18,06,10,9.50
2010,07,18,06,11,9.50
2010,07,18,06,12,9.50
2010,07,18,06,13,9.50
2010,07,18,06,14,9.50
2010,07,18,06,15,9.50
2010,07,18,06,16,9.50
2010,07,18,06,17,9.50
2010,07,18,06,18,9.50
2010,07,18,06,19,9.50
2010,07,18,06,20,9.50
2010,07,18,06,21,9.50
2010,07,18,06,22,9.50
2010,07,18,06,23,9.50
2010,07,18,06,24,9.50
2010,07,18,06,25,9.60
2010,07,18,06,26,9.60
2010,07,18,06,27,9.60
2010,07,18,06,28,9.70
2010,07,18,06,29,9.70
2010,07,18,06,30,9.70
2010,07,18,06,31,9.70
2010,07,18,06,32,9.70
2010,07,18,06,33,9.70
2010,07,18,06,34,9.80
2010,07,18,06,35,9.80
2010,07,18,06,36,9.80
2010,07,18,06,37,9.90
2010,07,18,06,38,9.90
2010,07,18,06,39,9.90
2010,07,18,06,40,9.90
2010,07,18,06,41,10.10
2010,07,18,06,42,10.10
2010,07,18,06,43,10.20
2010,07,18,06,44,10.30
2010,07,18,06,45,10.30
2010,07,18,06,46,10.40
2010,07,18,06,47,10.40
2010,07,18,06,48,10.40
2010,07,18,06,49,10.50
2010,07,18,06,50,10.60
2010,07,18,06,51,10.70
2010,07,18,06,52,10.70
2010,07,18,06,53,10.90
2010,07,18,06,54,10.90
2010,07,18,06,55,11.00
2010,07,18,06,56,11.10
2010,07,18,06,57,11.20
2010,07,18,06,58,11.30
2010,07,18,06,59,11.40
2010,07,18,07,00,11.40
2010,07,18,07,01,11.50
2010,07,18,07,02,11.60
2010,07,18,07,03,11.60
2010,07,18,07,04,11.70
2010,07,18,07,05,11.70
2010,07,18,07,06,11.70
2010,07,18,07,07,11.80
2010,07,18,07,08,11.80
2010,07,18,07,09,11.90
2010,07,18,07,10,11.90
2010,07,18,07,11,12.00
2010,07,18,07,12,12.10
2010,07,18,07,13,12.20
2010,07,18,07,14,12.20
2010,07,18,07,15,12.30
2010,07,18,07,16,12.30
2010,07,18,07,17,12.30
2010,07,18,07,18,12.40
2010,07,18,07,19,12.50
2010,07,18,07,20,12.60
2010,07,18,07,21,12.60
2010,07,18,07,22,12.60
2010,07,18,07,23,12.60
2010,07,18,07,24,12.70
2010,07,18,07,25,12.70
2010,07,18,07,26,12.80
2010,07,18,07,27,12.80
2010,07,18,07,28,12.90
2010,07,18,07,29,13.00
2010,07,18,07,30,13.10
2010,07,18,07,31,13.20
2010,07,18,07,32,13.30
2010,07,18,07,33,13.30
2010,07,18,07,34,13.30
2010,07,18,07,35,13.30
2010,07,18,07,36,13.30
2010,07,18,07,37,13.40
2010,07,18,07,38,13.40
2010,07,18,07,39,13.50
2010,07,18,07,40,13.50
2010,07,18,07,41,13.50
2010,07,18,07,42,13.60
2010,07,18,07,43,13.60
2010,07,18,07,44,13.70
2010,07,18,07,45,13.70
2010,07,18,07,46,13.70
2010,07,18,07,47,13.80
2010,07,18,07,48,13.90
2010,07,18,07,49,13.90
2010,07,18,07,50,14.00
2010,07,18,07,51,14.10
2010,07,18,07,52,14.20
2010,07,18,07,53,14.40
2010,07,18,07,54,14.50
2010,07,18,07,55,14.60
2010,07,18,07,56,14.60
2010,07,18,07,57,14.70
2010,07,18,07,58,14.80
2010,07,18,07,59,14.80
2010,07,18,08,00,14.80
2010,07,18,08,01,14.90
2010,07,18,08,02,15.00
2010,07,18,08,03,15.10
2010,07,18,08,04,15.20
2010,07,18,08,05,15.30
2010,07,18,08,06,15.40
2010,07,18,08,07,15.50
2010,07,18,08,08,15.60
2010,07,18,08,09,15.70
2010,07,18,08,10,15.80
2010,07,18,08,11,15.80
2010,07,18,08,12,15.90
2010,07,18,08,13,16.10
2010,07,18,08,14,16.20
2010,07,18,08,15,16.20
2010,07,18,08,16,16.30
2010,07,18,08,17,16.40
2010,07,18,08,18,16.50
2010,07,18,08,19,16.60
2010,07,18,08,20,16.70
2010,07,18,08,21,16.70
2010,07,18,08,22,16.90
2010,07,18,08,23,17.00
2010,07,18,08,24,17.10
2010,07,18,08,25,17.30
2010,07,18,08,26,17.40
2010,07,18,08,27,17.60
2010,07,18,08,28,17.70
2010,07,18,08,29,17.70
2010,07,18,08,30,17.80
2010,07,18,08,31,17.90
2010,07,18,08,32,18.00
2010,07,18,08,33,18.10
2010,07,18,08,34,18.20
2010,07,18,08,35,18.30
2010,07,18,08,36,18.40
2010,07,18,08,37,18.50
2010,07,18,08,38,18.60
2010,07,18,08,39,18.70
2010,07,18,08,40,18.70
2010,07,18,08,41,18.80
2010,07,18,08,42,18.90
2010,07,18,08,43,19.00
2010,07,18,08,44,19.10
2010,07,18,08,45,19.10
2010,07,18,08,46,19.10
2010,07,18,08,47,19.20
2010,07,18,08,48,19.20
2010,07,18,08,49,19.30
2010,07,18,08,50,19.40
2010,07,18,08,51,19.40
2010,07,18,08,52,19.40
2010,07,18,08,53,19.40
2010,07,18,08,54,19.40
2010,07,18,08,55,19.40
2010,07,18,08,56,19.40
2010,07,18,08,57,19.40
2010,07,18,08,58,19.40
2010,07,18,08,59,19.40
2010,07,18,09,00,19.30
2010,07,18,09,01,19.20
2010,07,18,09,02,19.10
2010,07,18,09,03,19.10
2010,07,18,09,04,19.10
2010,07,18,09,05,19.10
2010,07,18,09,06,19.10
2010,07,18,09,07,19.10
2010,07,18,09,08,19.10
2010,07,18,09,09,19.10
2010,07,18,09,10,19.10
2010,07,18,09,11,19.10
2010,07,18,09,12,19.10
2010,07,18,09,13,19.10
2010,07,18,09,14,19.10
2010,07,18,09,15,19.10
2010,07,18,09,16,19.10
2010,07,18,09,17,19.10
2010,07,18,09,18,19.10
2010,07,18,09,19,19.10
2010,07,18,09,20,19.10
2010,07,18,09,21,19.00
2010,07,18,09,22,18.90
2010,07,18,09,23,18.80
2010,07,18,09,24,18.70
2010,07,18,09,25,18.70
2010,07,18,09,26,18.70
2010,07,18,09,27,18.70
2010,07,18,09,28,18.80
2010,07,18,09,29,18.80
2010,07,18,09,30,18.90
2010,07,18,09,31,18.80
2010,07,18,09,32,18.80
2010,07,18,09,33,18.70
2010,07,18,09,34,18.70
2010,07,18,09,35,18.70
2010,07,18,09,36,18.70
2010,07,18,09,37,18.70
2010,07,18,09,38,18.70
2010,07,18,09,39,18.60
2010,07,18,09,40,18.60
2010,07,18,09,41,18.50
2010,07,18,09,42,18.40
2010,07,18,09,43,18.30
2010,07,18,09,44,18.20
2010,07,18,09,45,18.10
2010,07,18,09,46,18.10
2010,07,18,09,47,18.20
2010,07,18,09,48,18.20
2010,07,18,09,49,18.20
2010,07,18,09,50,18.30
2010,07,18,09,51,18.30
2010,07,18,09,52,18.30
2010,07,18,09,53,18.30
2010,07,18,09,54,18.30
2010,07,18,09,55,18.30
2010,07,18,09,56,18.20
2010,07,18,09,57,18.20
2010,07,18,09,58,18.20
2010,07,18,09,59,18.20
2010,07,18,10,00,18.20
2010,07,18,10,01,18.10
2010,07,18,10,02,18.10
2010,07,18,10,03,18.20
2010,07,18,10,04,18.20
2010,07,18,10,05,18.20
2010,07,18,10,06,18.20
2010,07,18,10,07,18.20
2010,07,18,10,08,18.10
2010,07,18,10,09,18.10
2010,07,18,10,10,18.10
2010,07,18,10,11,18.10
2010,07,18,10,12,18.20
2010,07,18,10,13,18.20
2010,07,18,10,14,18.20
2010,07,18,10,15,18.30
2010,07,18,10,16,18.40
2010,07,18,10,17,18.40
2010,07,18,10,18,18.40
2010,07,18,10,19,18.30
2010,07,18,10,20,18.20
2010,07,18,10,21,18.20
2010,07,18,10,22,18.20
2010,07,18,10,23,18.20
2010,07,18,10,24,18.20
2010,07,18,10,25,18.20
2010,07,18,10,26,18.30
2010,07,18,10,27,18.30
2010,07,18,10,28,18.40
2010,07,18,10,29,18.50
2010,07,18,10,30,18.50
2010,07,18,10,31,18.50
2010,07,18,10,32,18.50
2010,07,18,10,33,18.50
2010,07,18,10,34,18.50
2010,07,18,10,35,18.50
2010,07,18,10,36,18.50
2010,07,18,10,37,18.50
2010,07,18,10,38,18.60
2010,07,18,10,39,18.70
2010,07,18,10,40,18.70
2010,07,18,10,41,18.80
2010,07,18,10,42,18.80
2010,07,18,10,43,18.90
2010,07,18,10,44,18.90
2010,07,18,10,45,18.90
2010,07,18,10,46,18.90
2010,07,18,10,47,19.00
2010,07,18,10,48,19.10
2010,07,18,10,49,19.00
2010,07,18,10,50,18.90
2010,07,18,10,51,18.90
2010,07,18,10,52,18.90
2010,07,18,10,53,18.90
2010,07,18,10,54,18.80
2010,07,18,10,55,18.80
2010,07,18,10,56,18.70
2010,07,18,10,57,18.50
2010,07,18,10,58,18.40
2010,07,18,10,59,18.40
2010,07,18,11,00,18.50
2010,07,18,11,01,18.50
2010,07,18,11,02,18.50
2010,07,18,11,03,18.40
2010,07,18,11,04,18.50
2010,07,18,11,05,18.50
2010,07,18,11,06,18.50
2010,07,18,11,07,18.50
2010,07,18,11,08,18.40
2010,07,18,11,09,18.40
2010,07,18,11,10,18.40
2010,07,18,11,11,18.40
2010,07,18,11,12,18.30
2010,07,18,11,13,18.40
2010,07,18,11,14,18.40
2010,07,18,11,15,18.40
2010,07,18,11,16,18.40
2010,07,18,11,17,18.50
2010,07,18,11,18,18.60
2010,07,18,11,19,18.70
2010,07,18,11,20,18.70
2010,07,18,11,21,18.70
2010,07,18,11,22,18.70
2010,07,18,11,23,18.80
2010,07,18,11,24,18.70
2010,07,18,11,25,18.70
2010,07,18,11,26,18.50
2010,07,18,11,27,18.50
2010,07,18,11,28,18.50
2010,07,18,11,29,18.40
2010,07,18,11,30,18.40
2010,07,18,11,31,18.40
2010,07,18,11,32,18.40
2010,07,18,11,33,18.40
2010,07,18,11,34,18.50
2010,07,18,11,35,18.60
2010,07,18,11,36,18.70
2010,07,18,11,37,18.70
2010,07,18,11,38,18.60
2010,07,18,11,39,18.60
2010,07,18,11,40,18.60
2010,07,18,11,41,18.60
2010,07,18,11,42,18.60
2010,07,18,11,43,18.60
2010,07,18,11,44,18.80
2010,07,18,11,45,19.20
2010,07,18,11,46,19.20
2010,07,18,11,47,19.30
2010,07,18,11,48,19.40
2010,07,18,11,49,19.50
2010,07,18,11,50,19.50
2010,07,18,11,51,19.60
2010,07,18,11,52,19.60
2010,07,18,11,53,19.60
2010,07,18,11,54,19.60
2010,07,18,11,55,19.60
2010,07,18,11,56,19.60
2010,07,18,11,57,19.50
2010,07,18,11,58,19.50
2010,07,18,11,59,19.40
2010,07,18,12,00,19.40
2010,07,18,12,01,19.40
2010,07,18,12,02,19.30
2010,07,18,12,03,19.30
2010,07,18,12,04,19.30
2010,07,18,12,05,19.10
2010,07,18,12,06,18.90
2010,07,18,12,07,18.60
2010,07,18,12,08,18.40
2010,07,18,12,09,18.30
2010,07,18,12,10,18.30
2010,07,18,12,11,18.20
2010,07,18,12,12,18.20
2010,07,18,12,13,18.20
2010,07,18,12,14,18.20
2010,07,18,12,15,18.10
2010,07,18,12,16,18.10
2010,07,18,12,17,18.00
2010,07,18,12,18,17.90
2010,07,18,12,19,17.80
2010,07,18,12,20,17.70
2010,07,18,12,21,17.60
2010,07,18,12,22,17.40
2010,07,18,12,23,17.30
2010,07,18,12,24,17.10
2010,07,18,12,25,17.00
2010,07,18,12,26,17.10
2010,07,18,12,27,17.00
2010,07,18,12,28,17.00
2010,07,18,12,29,17.10
2010,07,18,12,30,17.20
2010,07,18,12,31,17.20
2010,07,18,12,32,17.20
2010,07,18,12,33,17.20
2010,07,18,12,34,17.30
2010,07,18,12,35,17.30
2010,07,18,12,36,17.10
2010,07,18,12,37,17.00
2010,07,18,12,38,16.90
2010,07,18,12,39,16.80
2010,07,18,12,40,16.70
2010,07,18,12,41,16.70
2010,07,18,12,42,16.70
2010,07,18,12,43,16.60
2010,07,18,12,44,16.60
2010,07,18,12,45,16.70
2010,07,18,12,46,16.70
2010,07,18,12,47,16.80
2010,07,18,12,48,16.90
2010,07,18,12,49,16.90
2010,07,18,12,50,16.90
2010,07,18,12,51,16.80
2010,07,18,12,52,16.70
2010,07,18,12,53,16.70
2010,07,18,12,54,16.60
2010,07,18,12,55,16.50
2010,07,18,12,56,16.50
2010,07,18,12,57,16.60
2010,07,18,12,58,16.70
2010,07,18,12,59,16.70
2010,07,18,13,00,16.70
2010,07,18,13,01,16.60
2010,07,18,13,02,16.40
2010,07,18,13,03,16.40
2010,07,18,13,04,16.30
2010,07,18,13,05,16.30
2010,07,18,13,06,16.40
2010,07,18,13,07,16.30
2010,07,18,13,08,16.40
2010,07,18,13,09,16.40
2010,07,18,13,10,16.40
2010,07,18,13,11,16.50
2010,07,18,13,12,16.40
2010,07,18,13,13,16.50
2010,07,18,13,14,16.60
2010,07,18,13,15,16.80
2010,07,18,13,16,16.90
2010,07,18,13,17,16.90
2010,07,18,13,18,16.90
2010,07,18,13,19,17.00
2010,07,18,13,20,17.00
2010,07,18,13,21,16.90
2010,07,18,13,22,16.70
2010,07,18,13,23,16.40
2010,07,18,13,24,16.20
2010,07,18,13,25,16.00
2010,07,18,13,26,15.90
2010,07,18,13,27,15.90
2010,07,18,13,28,15.80
2010,07,18,13,29,15.70
2010,07,18,13,30,15.70
2010,07,18,13,31,15.60
2010,07,18,13,32,15.60
2010,07,18,13,33,15.50
2010,07,18,13,34,15.50
2010,07,18,13,35,15.50
2010,07,18,13,36,15.50
2010,07,18,13,37,15.50
2010,07,18,13,38,15.60
2010,07,18,13,39,15.60
2010,07,18,13,40,15.70
2010,07,18,13,41,15.80
2010,07,18,13,42,16.10
2010,07,18,13,43,16.30
2010,07,18,13,44,16.50
2010,07,18,13,45,16.70
2010,07,18,13,46,16.80
2010,07,18,13,47,16.80
2010,07,18,13,48,16.90
2010,07,18,13,49,17.00
2010,07,18,13,50,17.10
2010,07,18,13,51,17.10
2010,07,18,13,52,17.00
2010,07,18,13,53,17.00
2010,07,18,13,54,17.00
2010,07,18,13,55,17.10
2010,07,18,13,56,17.10
2010,07,18,13,57,17.10
2010,07,18,13,58,17.00
2010,07,18,13,59,16.90
2010,07,18,14,00,16.90
2010,07,18,14,01,16.90
2010,07,18,14,02,16.90
2010,07,18,14,03,16.90
2010,07,18,14,04,16.90
2010,07,18,14,05,16.70
2010,07,18,14,06,16.70
2010,07,18,14,07,16.70
2010,07,18,14,08,16.70
2010,07,18,14,09,16.70
2010,07,18,14,10,16.60
2010,07,18,14,11,16.40
2010,07,18,14,12,16.30
2010,07,18,14,13,16.30
2010,07,18,14,14,16.30
2010,07,18,14,15,16.30
2010,07,18,14,16,16.40
2010,07,18,14,17,16.60
2010,07,18,14,18,16.80
2010,07,18,14,19,17.10
2010,07,18,14,20,17.30
2010,07,18,14,21,17.30
2010,07,18,14,22,17.40
2010,07,18,14,23,17.30
2010,07,18,14,24,17.20
2010,07,18,14,25,16.90
2010,07,18,14,26,16.80
2010,07,18,14,27,16.80
2010,07,18,14,28,16.70
2010,07,18,14,29,16.80
2010,07,18,14,30,17.00
2010,07,18,14,31,17.10
2010,07,18,14,32,17.30
2010,07,18,14,33,17.50
2010,07,18,14,34,17.60
2010,07,18,14,35,17.50
2010,07,18,14,36,17.40
2010,07,18,14,37,17.30
2010,07,18,14,38,17.30
2010,07,18,14,39,17.00
2010,07,18,14,40,16.90
2010,07,18,14,41,16.90
2010,07,18,14,42,16.90
2010,07,18,14,43,17.00
2010,07,18,14,44,17.00
2010,07,18,14,45,17.10
2010,07,18,14,46,17.20
2010,07,18,14,47,17.10
2010,07,18,14,48,17.00
2010,07,18,14,49,16.90
2010,07,18,14,50,16.90
2010,07,18,14,51,16.90
2010,07,18,14,52,16.90
2010,07,18,14,53,17.00
2010,07,18,14,54,17.20
2010,07,18,14,55,17.20
2010,07,18,14,56,17.20
2010,07,18,14,57,17.30
2010,07,18,14,58,17.30
2010,07,18,14,59,17.40
2010,07,18,15,00,17.50
2010,07,18,15,01,17.70
2010,07,18,15,02,17.80
2010,07,18,15,03,17.80
2010,07,18,15,04,17.80
2010,07,18,15,05,17.60
2010,07,18,15,06,17.50
2010,07,18,15,07,17.40
2010,07,18,15,08,17.30
2010,07,18,15,09,17.10
2010,07,18,15,10,17.00
2010,07,18,15,11,17.00
2010,07,18,15,12,17.00
2010,07,18,15,13,17.00
2010,07,18,15,14,17.10
2010,07,18,15,15,17.20
2010,07,18,15,16,17.30
2010,07,18,15,17,17.30
2010,07,18,15,18,17.50
2010,07,18,15,19,17.60
2010,07,18,15,20,17.70
2010,07,18,15,21,17.80
2010,07,18,15,22,17.90
2010,07,18,15,23,17.90
2010,07,18,15,24,17.90
2010,07,18,15,25,17.90
2010,07,18,15,26,17.80
2010,07,18,15,27,17.80
2010,07,18,15,28,17.80
2010,07,18,15,29,17.90
2010,07,18,15,30,17.90
2010,07,18,15,31,17.90
2010,07,18,15,32,18.00
2010,07,18,15,33,18.10
2010,07,18,15,34,18.10
2010,07,18,15,35,18.10
2010,07,18,15,36,18.10
2010,07,18,15,37,18.10
2010,07,18,15,38,18.10
2010,07,18,15,39,18.00
2010,07,18,15,40,17.90
2010,07,18,15,41,17.90
2010,07,18,15,42,17.80
2010,07,18,15,43,17.80
2010,07,18,15,44,17.80
2010,07,18,15,45,17.80
2010,07,18,15,46,17.90
2010,07,18,15,47,17.90
2010,07,18,15,48,18.00
2010,07,18,15,49,18.00
2010,07,18,15,50,18.00
2010,07,18,15,51,18.10
2010,07,18,15,52,18.10
2010,07,18,15,53,18.10
2010,07,18,15,54,18.10
2010,07,18,15,55,18.10
2010,07,18,15,56,18.10
2010,07,18,15,57,18.10
2010,07,18,15,58,18.10
2010,07,18,15,59,18.10
2010,07,18,16,00,18.10
2010,07,18,16,01,18.10
2010,07,18,16,02,18.10
2010,07,18,16,03,18.20
2010,07,18,16,04,18.20
2010,07,18,16,05,18.20
2010,07,18,16,06,18.20
2010,07,18,16,07,18.10
2010,07,18,16,08,18.00
2010,07,18,16,09,17.90
2010,07,18,16,10,17.80
2010,07,18,16,11,17.70
2010,07,18,16,12,17.70
2010,07,18,16,13,17.80
2010,07,18,16,14,17.80
2010,07,18,16,15,17.80
2010,07,18,16,16,17.80
2010,07,18,16,17,17.70
2010,07,18,16,18,17.70
2010,07,18,16,19,17.70
2010,07,18,16,20,17.70
2010,07,18,16,21,17.70
2010,07,18,16,22,17.80
2010,07,18,16,23,17.90
2010,07,18,16,24,17.90
2010,07,18,16,25,18.00
2010,07,18,16,26,18.10
2010,07,18,16,27,18.20
2010,07,18,16,28,18.20
2010,07,18,16,29,18.20
2010,07,18,16,30,18.20
2010,07,18,16,31,18.20
2010,07,18,16,32,18.20
2010,07,18,16,33,18.10
2010,07,18,16,34,18.10
2010,07,18,16,35,18.00
2010,07,18,16,36,18.00
2010,07,18,16,37,17.90
2010,07,18,16,38,17.90
2010,07,18,16,39,17.70
2010,07,18,16,40,17.70
2010,07,18,16,41,17.70
2010,07,18,16,42,17.70
2010,07,18,16,43,17.70
2010,07,18,16,44,17.50
2010,07,18,16,45,17.50
2010,07,18,16,46,17.50
2010,07,18,16,47,17.50
2010,07,18,16,48,17.70
2010,07,18,16,49,17.70
2010,07,18,16,50,17.80
2010,07,18,16,51,17.90
2010,07,18,16,52,17.80
2010,07,18,16,53,17.90
2010,07,18,16,54,17.90
2010,07,18,16,55,17.90
2010,07,18,16,56,17.90
2010,07,18,16,57,18.00
2010,07,18,16,58,18.10
2010,07,18,16,59,18.20
2010,07,18,17,00,18.20
2010,07,18,17,01,18.30
2010,07,18,17,02,18.20
2010,07,18,17,03,18.20
2010,07,18,17,04,18.10
2010,07,18,17,05,17.90
2010,07,18,17,06,17.90
2010,07,18,17,07,17.80
2010,07,18,17,08,17.80
2010,07,18,17,09,17.80
2010,07,18,17,10,17.80
2010,07,18,17,11,17.90
2010,07,18,17,12,17.90
2010,07,18,17,13,17.90
2010,07,18,17,14,17.90
2010,07,18,17,15,17.90
2010,07,18,17,16,17.90
2010,07,18,17,17,18.00
2010,07,18,17,18,18.10
2010,07,18,17,19,18.00
2010,07,18,17,20,17.90
2010,07,18,17,21,17.90
2010,07,18,17,22,17.90
2010,07,18,17,23,17.90
2010,07,18,17,24,17.90
2010,07,18,17,25,17.80